TimeEDT,TemperatureF,Dew PointF,Humidity,Sea Level PressureIn,VisibilityMPH,Wind Direction,Wind SpeedMPH,Gust SpeedMPH,PrecipitationIn,Events,Conditions,WindDirDegrees,DateUTC
12:53 AM,63.0,45.0,52,29.98,10.0,East,5.8,-,N/A,,Clear,100,2013-05-04 04:53:00
1:53 AM,60.1,45.0,57,29.98,10.0,East,5.8,-,N/A,,Clear,80,2013-05-04 05:53:00
2:53 AM,61.0,44.1,54,29.98,10.0,East,4.6,-,N/A,,Clear,90,2013-05-04 06:53:00
3:53 AM,57.9,43.0,58,29.98,10.0,East,8.1,-,N/A,,Clear,100,2013-05-04 07:53:00
4:53 AM,59.0,42.1,53,29.99,10.0,ESE,9.2,-,N/A,,Clear,110,2013-05-04 08:53:00
5:53 AM,59.0,41.0,51,29.99,10.0,ESE,6.9,-,N/A,,Clear,110,2013-05-04 09:53:00
6:53 AM,57.0,42.1,57,30.00,10.0,ESE,8.1,-,N/A,,Clear,110,2013-05-04 10:53:00
7:53 AM,59.0,43.0,55,30.01,10.0,ESE,9.2,-,N/A,,Clear,110,2013-05-04 11:53:00
8:53 AM,61.0,45.0,56,30.01,10.0,ESE,10.4,-,N/A,,Clear,120,2013-05-04 12:53:00
9:53 AM,64.0,48.0,56,30.02,10.0,SE,11.5,16.1,N/A,,Clear,130,2013-05-04 13:53:00
10:53 AM,66.9,48.0,51,30.02,10.0,SE,11.5,17.3,N/A,,Clear,140,2013-05-04 14:53:00
11:53 AM,69.1,48.9,49,30.02,10.0,Variable,6.9,-,N/A,,Clear,0,2013-05-04 15:53:00
12:53 PM,69.1,48.0,47,30.02,10.0,East,12.7,19.6,N/A,,Clear,90,2013-05-04 16:53:00
1:53 PM,70.0,48.9,47,30.01,10.0,ESE,10.4,-,N/A,,Clear,110,2013-05-04 17:53:00
2:53 PM,72.0,46.0,40,29.99,10.0,ENE,13.8,23.0,N/A,,Clear,70,2013-05-04 18:53:00
3:53 PM,71.1,45.0,39,29.98,10.0,East,13.8,20.7,N/A,,Clear,100,2013-05-04 19:53:00
4:53 PM,73.0,44.1,35,29.97,10.0,ENE,13.8,-,N/A,,Clear,70,2013-05-04 20:53:00
5:53 PM,72.0,39.9,31,29.97,10.0,ESE,13.8,19.6,N/A,,Clear,120,2013-05-04 21:53:00
6:53 PM,73.0,37.9,28,29.97,10.0,East,13.8,-,N/A,,Clear,90,2013-05-04 22:53:00
7:53 PM,70.0,39.9,33,29.99,10.0,ESE,13.8,-,N/A,,Clear,110,2013-05-04 23:53:00
8:53 PM,66.0,39.0,37,30.01,10.0,ESE,9.2,-,N/A,,Clear,120,2013-05-05 00:53:00
9:53 PM,62.1,39.0,43,30.03,10.0,East,4.6,-,N/A,,Clear,80,2013-05-05 01:53:00
10:53 PM,55.0,42.1,62,30.04,10.0,East,5.8,-,N/A,,Clear,80,2013-05-05 02:53:00
11:53 PM,59.0,42.1,53,30.03,10.0,East,6.9,-,N/A,,Clear,80,2013-05-05 03:53:00